GW3925 Weather Reports


time (UTC)temp
C
wind
direction
speed
KPH
gust
KPH
rain 1hr
cm
rain 24hr
cm
rain mn
cm
humidity
%
barometer
mb
20260503180058 28 345 0.0 8.0 0.00 0.00 0.00 41 1010.1
20260503174556 28 128 1.6 6.4 0.00 0.00 0.00 42 1010.2
20260503173044 27 131 1.6 8.0 0.00 0.00 0.00 46 1010.2
20260503171548 23 0 1.6 4.8 0.00 0.00 0.00 60 1010.2
20260503081543 10 296 3.2 6.4 0.00 0.00 0.00 92 1011.9
20260503071602 11 305 1.6 4.8 0.00 0.00 0.00 90 1012.5
20260503054555 12 258 0.0 1.6 0.00 0.00 0.00 88 1012.5
20260503053048 12 277 1.6 3.2 0.00 0.00 0.00 88 1012.6
20260503051539 13 163 0.0 1.6 0.00 0.00 0.00 87 1012.7
20260503050040 13 0 0.0 1.6 0.00 0.00 0.00 87 1012.9
20260503044545 13 156 0.0 0.0 0.00 0.00 0.00 87 1012.8
20260503043044 13 158 0.0 3.2 0.00 0.00 0.00 85 1012.6
20260503041543 14 147 3.2 6.4 0.00 0.00 0.00 82 1012.5
20260503040051 14 0 0.0 3.2 0.00 0.00 0.00 82 1012.2
20260503034539 15 334 1.6 1.6 0.00 0.00 0.00 81 1012.0
20260503033041 15 300 0.0 4.8 0.00 0.00 0.00 78 1012.0
20260503031600 16 258 0.0 3.2 0.00 0.00 0.00 76 1012.1
20260503030048 16 0 0.0 1.6 0.00 0.00 0.00 76 1012.1
20260503024543 16 129 0.0 3.2 0.00 0.00 0.00 76 1012.3
20260503023039 16 123 1.6 6.4 0.00 0.00 0.00 75 1012.5
20260503021539 17 130 4.8 6.4 0.00 0.00 0.00 71 1012.4
20260503020045 18 205 1.6 9.7 0.00 0.00 0.00 67 1012.3
20260503014605 18 307 3.2 8.0 0.00 0.00 0.00 65 1012.2
20260503013042 18 294 3.2 8.0 0.00 0.00 0.00 64 1012.1
20260503011542 18 328 1.6 9.7 0.00 0.00 0.00 66 1012.2
20260503010105 17 342 4.8 9.7 0.00 0.00 0.00 68 1012.2
20260503004537 17 326 3.2 9.7 0.00 0.00 0.00 68 1012.2
20260503003036 17 178 4.8 14.5 0.00 0.00 0.00 70 1012.2
20260503001554 16 231 8.0 12.9 0.00 0.00 0.00 72 1012.3
20260503000043 16 302 4.8 11.3 0.00 0.00 0.00 73 1012.4
20260502234543 16 176 4.8 14.5 0.00 0.00 0.00 71 1012.5
20260502233042 16 234 3.2 11.3 0.00 0.00 0.00 71 1012.7
20260502231538 16 218 1.6 8.0 0.00 0.00 0.00 71 1012.7
20260502230043 16 299 4.8 12.9 0.00 0.00 0.00 71 1013.0
20260502224543 16 312 9.7 14.5 0.00 0.00 0.00 72 1013.3
20260502223042 16 264 9.7 16.1 0.00 0.00 0.00 72 1013.6
20260502221542 16 309 14.5 22.5 0.00 0.00 0.00 72 1013.6
20260502220041 17 200 11.3 16.1 0.00 0.00 0.00 69 1013.7
20260502214545 18 319 0.0 4.8 0.00 0.00 0.00 63 1013.7
20260502213044 17 334 4.8 11.3 0.00 0.00 0.00 68 1013.7
20260502211543 17 172 1.6 8.0 0.00 0.00 0.00 69 1013.9
20260502210045 17 136 1.6 11.3 0.00 0.00 0.00 70 1014.1
20260502204541 16 143 3.2 9.7 0.00 0.00 0.00 72 1014.2
20260502203040 15 174 4.8 11.3 0.00 0.00 0.00 74 1014.5
20260502201550 14 329 6.4 11.3 0.00 0.00 0.00 77 1014.9
20260502200045 13 289 4.8 9.7 0.00 0.00 0.00 79 1015.2
20260502194542 13 305 6.4 11.3 0.00 0.00 0.00 79 1015.2
20260502193039 13 195 1.6 8.0 0.00 0.00 0.00 80 1015.3
20260502191550 14 307 0.0 3.2 0.00 0.00 0.00 74 1015.6
20260502190041 15 211 1.6 4.8 0.00 0.00 0.00 71 1015.6
20260502184556 16 341 0.0 6.4 0.00 0.00 0.00 66 1015.8
20260502183100 16 117 1.6 9.7 0.00 0.00 0.00 65 1016.0
20260502181544 17 125 1.6 6.4 0.00 0.00 0.00 64 1016.0